Regional Weather Roundup
Issued by NWS State College, PA

Home | Current Version | Previous Version | Graphics & Text | Print | Product List | Glossary On
Versions: 1 2 3 4 5 6 7 8 9 10 11 12 13 14 15 16 17 18 19 20 21 22 23 24 25 26 27 28 29 30 31 32 33 34 35 36 37 38 39 40 41 42 43 44 45 46 47 48 49 50
000
ASUS41 KCTP 020303
RWRCTP

REGIONAL WEATHER ROUNDUP
NATIONAL WEATHER SERVICE STATE COLLEGE PA
1100 PM EDT WED APR 01 2015

Note: "fair" indicates few or no clouds below 12,000 feet with no
significant weather and/or obstructions to visibility.

* = STATION THAT DOES NOT REPORT PRECIPITATION /E.G. RAIN...SNOW...ETC/
    THUNDER OR FOG.

PAZ002>004-007>009-013>016-020>023-029>032-020400-
WESTERN PENNSYLVANIA

CITY           SKY/WX    TMP DP  RH WIND       PRES   REMARKS
ERIE           CLEAR     43  31  62 S10       30.07F
MEADVILLE      CLEAR     45  29  53 S5        30.09S
FRANKLIN*      CLEAR     39  27  60 S7        30.12F
NEW CASTLE     FAIR      45  30  55 CALM      30.13S
BEAVER COUNTY  NOT AVBL
BUTLER*        CLEAR     43  27  52 S6        30.15R
PITTSBURGH INT CLEAR     47  26  44 S3        30.14S
PITTSBURGH     CLEAR     49  21  33 S6        30.14S
INDIANA*       CLEAR     36  28  75 CALM      30.18S
LATROBE        NOT AVBL
WASHINGTON CO* CLEAR     34  25  69 CALM      30.17R
$$

PAZ004>006-010>012-017>019-024>028-033>037-041-042-045-046-049>053-020400-
CENTRAL PENNSYLVANIA

CITY           SKY/WX    TMP DP  RH WIND       PRES   REMARKS
BRADFORD       CLEAR     31  27  85 SE5       30.10S
DUBOIS         CLEAR     42  28  57 VRB5      30.12S
CLEARFIELD     CLEAR     33  28  81 N8        30.14F
JOHNSTOWN      CLEAR     42  23  46 S8        30.14R
ALTOONA        CLEAR     38  25  59 SW5       30.17R
STATE COLLEGE  CLEAR     37  29  74 CALM      30.16F
WILLIAMSPORT   CLEAR     35  28  75 CALM      30.17F
SELINSGROVE    CLEAR     33  29  85 CALM      30.20R
FT INDIANTOWN  CLEAR     34  28  76 NE3       30.20S
CAPITAL CITY   CLEAR     37  28  70 SW3       30.20S
HARRISBURG     CLEAR     38  30  73 CALM      30.20S
YORK           CLEAR     31  26  82 CALM      30.20S
$$

PAZ038>040-043-044-047-048-054-055-060>062-067>071-020400-
EASTERN PENNSYLVANIA

CITY           SKY/WX    TMP DP  RH WIND       PRES   REMARKS
SCRANTON       CLEAR     35  20  54 E6        30.17R
MOUNT POCONO   CLEAR     26  20  77 CALM      30.14S
ALLENTOWN      FAIR      36  25  64 CALM      30.20R
QUAKERTOWN*    CLEAR     32  25  74 CALM      30.21R
READING        CLEAR     40  25  55 CALM      30.20R
LANCASTER      CLEAR     38  28  67 CALM      30.21R
COATESVILLE    CLEAR     41  27  56 S3        30.22R
POTTSTOWN      CLEAR     34  23  64 CALM      30.23R
BLUE BELL      CLEAR     36  28  75 CALM      30.21S
DOYLESTOWN     CLEAR     34  25  69 CALM      30.21R
WILLOW GROVE   NOT AVBL
NORTH PHILA    CLEAR     41  22  46 CALM      30.24R
PHILADELPHIA   CLEAR     45  22  40 CALM      30.23R
$$



USA.gov is the U.S. government's official web portal to all federal, state and local government web resources and services.